sat.trackr.live / text

‹ back to catalog

STARLINK-11581 [DTC]

NORAD 63144 · 2025-043N

PAYLOAD ACTIVE UNKNOWN

§ Identity

Operator
Country
US
Launch date
2025-03-03
Launch site
AFETR
Launch vehicle
Mass (kg)
RCS (m²)

Purposes: comms

External: N2YO · Heavens-Above · Gunter

§ Orbital elements

Epoch: 2026-05-25T01:33:47.747808Z

Period
91.67 min
Inclination
43.0011°
Eccentricity
0.0004391
Mean motion
15.70859021 rev/d
Perigee alt
353.5 km
Apogee alt
359.4 km
Semi-major
6,734.6 km
B*
1.4867e-3
RAAN
150.3772°
Arg perigee
284.0150°
Mean anomaly
76.0229°
Rev number
7,148

§ Raw data

STARLINK-11581 [DTC]1 63144U 25043N   26145.06513597  .00195079  00000+0  14867-2 0  99942 63144  43.0011 150.3772 0004391 284.0150  76.0229 15.70859021 71485

JSON: /api/v1/satellites/63144 · /tle

For live sub-satellite position, see the globe view (requires WebGL).

§ Visibility from observer

Set your observer location to see the next 7 days of passes ≥ 10°. The values pass through the URL so the page stays shareable.

No JS? Fill the form by hand. The geolocation button needs JavaScript.